Manchester, NH

10:20 PM EST on February 21, 2018 (GMT -0500)
Manchester

Weather History for KMHT - March, 2013

Change the Weather History Date:

Sunday, March 31, 2013

  Actual Average Record
Temperature  
Mean Temperature 44 °F 41 °F  
Max Temperature 60 °F 51 °F 89 °F (1998)
Min Temperature 28 °F 32 °F 14 °F (1950)
Degree Days  
Heating Degree Days 22 24  
Month to date heating degree days 897  
Since 1 July heating degree days 5560  
Cooling Degree Days 0 0  
Month to date cooling degree days 0  
Year to date cooling degree days 0  
Moisture  
Dew Point 23 °F    
Average Humidity 49    
Maximum Humidity 76    
Minimum Humidity 19    
Precipitation  
Precipitation 0.04 in 0.18 in 1.38 in (2014)
Month to date precipitation 4.33  
Year to date precipitation 10.13  
Snow  
Snow 0.00 in - - ()
Month to date snowfall  
Since 1 July snowfall  
Snow Depth -    
Sea Level Pressure  
Sea Level Pressure 30.04 in    
Wind  
Wind Speed 4 mph (South)    
Max Wind Speed 16 mph    
Max Gust Speed 22 mph    
Visibility 10 miles    
Events Rain    
T = Trace of Precipitation, MM = Missing Value Source: NWS Daily Summary

Daily Weather History Graph

Daily Weather History Graph

Search for Another Location

Airport or City:

Trip Planner

Search our weather history database for the weather conditions in past years. The results will help you decide how hot, cold, wet, or windy it might be!

Date:

Astronomy

Mar. 31, 2013 Rise Set
Actual Time 6:29 AM EDT 7:11 PM EDT
Civil Twilight 6:00 AM EDT 7:39 PM EDT
Nautical Twilight 5:26 AM EDT 8:13 PM EDT
Astronomical Twilight 4:51 AM EDT 8:48 PM EDT
Moon No Moon Rise 9:07 AM EDT (3/31)
Length of Visible Light 13h 39m
Length of Day
12h 41m
Waning Gibbous, 78% of the Moon is Illuminated
Mar 31
Waning Gibbous
Apr 3
Last Quarter
Apr 10
New
Apr 18
First Quarter
Apr 25
Full

Hourly Weather History & Observations

Time (EDT) Temp. Windchill Dew Point Humidity Pressure Visibility Wind Dir Wind Speed Gust Speed Precip Events Conditions
12:53 AM 33.1 °F - 19.9 °F 59% 30.15 in 10.0 mi Calm Calm - N/A   Clear
1:53 AM 33.1 °F - 21.0 °F 61% 30.14 in 10.0 mi Calm Calm - N/A   Clear
2:53 AM 30.9 °F 27.5 °F 19.9 °F 64% 30.14 in 10.0 mi North 3.5 mph - N/A   Clear
3:53 AM 30.9 °F - 19.9 °F 64% 30.14 in 10.0 mi Calm Calm - N/A   Clear
4:53 AM 28.0 °F 24.2 °F 19.9 °F 72% 30.15 in 10.0 mi NNW 3.5 mph - N/A   Clear
5:53 AM 28.9 °F - 21.0 °F 72% 30.15 in 10.0 mi Calm Calm - N/A   Clear
6:53 AM 28.0 °F - 21.0 °F 75% 30.15 in 10.0 mi Calm Calm - N/A   Clear
7:53 AM 30.9 °F - 21.9 °F 69% 30.15 in 10.0 mi Calm Calm - N/A   Clear
8:53 AM 36.0 °F - 23.0 °F 59% 30.14 in 10.0 mi Calm Calm - N/A   Clear
9:53 AM 42.1 °F - 21.0 °F 43% 30.12 in 10.0 mi Calm Calm - N/A   Clear
10:53 AM 50.0 °F - 17.1 °F 27% 30.11 in 10.0 mi South 8.1 mph - N/A   Clear
11:53 AM 53.1 °F - 17.1 °F 24% 30.09 in 10.0 mi WSW 4.6 mph - N/A   Clear
12:53 PM 57.0 °F - 18.0 °F 22% 30.06 in 10.0 mi South 10.4 mph 19.6 mph N/A   Clear
1:53 PM 59.0 °F - 16.0 °F 19% 30.01 in 10.0 mi SSW 12.7 mph 18.4 mph N/A   Clear
2:53 PM 59.0 °F - 17.1 °F 20% 29.99 in 10.0 mi South 13.8 mph 20.7 mph N/A   Clear
3:53 PM 57.9 °F - 19.0 °F 22% 29.96 in 10.0 mi South 11.5 mph 21.9 mph N/A   Clear
4:53 PM 57.9 °F - 19.9 °F 23% 29.95 in 10.0 mi South 13.8 mph - N/A   Clear
5:53 PM 55.9 °F - 19.9 °F 25% 29.94 in 10.0 mi South 16.1 mph - N/A   Clear
6:53 PM 54.0 °F - 19.9 °F 26% 29.94 in 10.0 mi South 10.4 mph - N/A   Scattered Clouds
7:53 PM 52.0 °F - 28.0 °F 40% 29.94 in 10.0 mi South 16.1 mph 21.9 mph N/A   Overcast
8:53 PM 48.9 °F - 35.1 °F 59% 29.93 in 10.0 mi South 13.8 mph 20.7 mph 0.00 in Rain Light Rain
9:53 PM 46.0 °F 43.1 °F 39.0 °F 76% 29.90 in 10.0 mi SE 5.8 mph - 0.00 in   Overcast
10:53 PM 46.0 °F 42.5 °F 37.9 °F 73% 29.83 in 10.0 mi East 6.9 mph - N/A   Overcast
11:53 PM 45.0 °F 41.2 °F 37.9 °F 76% 29.80 in 9.0 mi ESE 6.9 mph - 0.04 in Rain Light Rain